Theta_e
327 327 326 325 326 325 326 325 324 322 322 321 322 322 322 323 323 322 321 321 321 319 317 316 316 316 312 307 308 316 326 322 314 313 311 310 308 304 300 300 300 299 300 302 303 304 303
326 326 325 325 325 325 325 325 323 322 321 321 320 320 321 321 321 321 320 320 320 318 317 315 316 315 310 303 317 317 316 315 312 312 311 312 309 309 303 301 298 301 303 302 302 302 303
326 325 324 324 323 323 324 323 322 321 321 320 320 319 319 320 320 319 319 319 320 318 316 315 315 313 307 307 318 318 318 315 315 314 309 313 313 308 305 300 305 304 298 301 301 301 300
325 325 325 323 322 322 322 322 322 322 321 320 320 319 318 318 318 318 318 318 319 316 314 314 314 308 305 320 320 317 318 315 317 317 315 315 314 309 304 304 302 299 297 291 300 302 303
323 324 325 324 322 321 321 321 320 321 321 320 320 319 318 317 317 317 317 318 316 313 313 313 307 306 303 320 315 319 319 314 316 318 317 317 312 306 303 297 293 295 288 292 296 303 301
324 323 324 324 323 322 321 321 320 320 320 320 319 319 318 317 316 315 316 311 312 311 312 312 310 303 309 308 315 318 319 318 314 312 308 306 302 296 295 293 288 291 292 293 294 301 300
324 325 324 324 323 322 323 322 320 319 319 319 319 319 318 317 317 312 309 310 307 303 306 303 302 304 307 314 318 313 318 311 311 306 297 302 294 291 295 298 298 298 297 296 299 302 299
321 322 324 324 323 323 323 322 320 318 318 319 319 318 318 316 312 311 312 308 310 305 298 307 309 308 310 311 306 311 315 305 303 297 301 298 293 299 301 301 300 299 296 296 300 303 301
315 318 322 323 323 323 322 322 319 318 318 317 317 315 313 311 310 307 306 310 311 313 299 303 307 306 308 311 305 307 312 306 302 299 299 296 299 303 300 299 298 298 296 296 297 300 301
311 313 316 320 322 322 321 320 320 318 317 315 314 312 310 309 306 306 303 310 312 313 294 297 302 306 309 310 304 312 313 309 303 298 298 298 302 301 300 299 300 294 301 302 300 296 290
310 310 310 311 319 319 318 319 318 317 315 313 312 311 309 311 309 304 308 312 312 307 282 302 303 312 311 305 307 306 313 309 302 301 298 296 299 299 298 300 303 299 306 303 301 296 293
310 309 309 309 310 314 316 317 316 314 313 312 311 310 309 306 306 306 311 311 308 291 282 298 300 299 299 304 305 302 303 307 306 302 302 301 306 302 301 305 304 305 301 300 298 296 288
309 309 309 308 308 309 312 312 313 313 312 311 310 310 308 309 303 309 310 305 287 283 299 296 295 299 297 297 301 302 298 296 294 292 292 298 299 303 305 299 303 301 293 286 284 287 285
309 308 308 309 308 307 308 312 311 311 311 310 309 308 310 310 309 310 306 292 281 291 294 301 299 298 294 298 298 299 297 292 298 297 293 291 288 298 303 300 296 298 295 286 282 281 286
307 307 307 306 308 307 307 309 309 311 310 310 308 306 305 307 309 309 296 283 286 291 297 297 298 293 293 296 297 296 295 293 297 299 292 291 291 300 300 299 298 297 293 297 290 290 286
306 307 308 308 309 309 308 308 307 309 310 310 304 302 302 307 310 304 292 287 290 297 297 296 292 294 290 293 293 293 292 296 296 300 302 295 287 297 299 297 299 297 299 288 290 283 280
304 304 305 306 306 307 307 307 307 307 310 310 302 295 299 305 306 296 285 288 292 297 298 294 292 291 292 291 293 292 293 297 297 297 298 294 290 291 297 292 290 292 290 293 293 290 283
303 303 303 304 304 306 305 307 306 306 305 302 294 285 299 302 288 285 286 291 296 295 298 296 294 292 290 292 291 291 291 296 299 298 293 295 291 285 290 296 298 294 292 292 284 284 286
301 301 301 302 302 302 304 305 306 306 305 298 286 285 296 297 283 283 289 291 294 294 294 294 293 295 295 291 288 291 292 298 297 295 293 295 288 281 284 289 295 291 291 292 291 290 284
299 299 299 300 301 301 301 302 303 304 304 296 287 284 286 288 286 285 286 287 289 296 294 294 293 295 292 290 292 290 291 295 297 296 298 296 291 285 280 283 288 286 289 290 287 282 283
297 298 298 299 299 299 300 300 301 301 303 298 288 284 289 282 284 286 287 286 286 286 290 291 292 289 288 287 289 288 291 293 295 298 294 292 285 287 289 290 289 288 288 288 286 287 283
296 296 296 296 297 298 298 299 299 300 301 294 285 286 289 286 287 286 284 285 285 286 286 286 286 288 289 287 286 285 288 290 290 291 290 291 282 287 285 289 289 287 289 289 289 289 288
298 297 297 296 296 296 296 297 298 299 299 290 292 294 289 285 285 284 283 284 284 286 288 290 288 286 285 287 289 289 289 290 290 292 289 288 285 282 280 286 286 282 287 289 289 290 289
298 298 298 298 297 296 296 296 297 298 298 293 293 292 286 281 283 283 286 286 285 286 284 287 289 286 290 294 292 290 289 289 290 291 294 289 288 286 281 282 275 286 292 291 290 291 291
297 298 298 298 298 297 297 297 297 297 298 292 294 289 285 276 284 284 286 286 287 288 286 286 289 291 293 290 283 281 282 284 285 289 290 292 288 283 280 280 283 286 289 288 287 287 293
297 297 298 298 298 298 298 298 297 297 297 292 292 293 287 279 280 287 284 285 282 283 284 286 291 292 289 283 280 274 275 280 279 285 291 290 290 285 281 278 275 283 291 294 293 283 292
297 297 297 297 298 299 298 298 298 297 297 293 290 294 288 279 286 286 282 282 286 283 280 284 286 285 287 277 275 275 275 282 276 279 280 281 283 280 280 279 281 290 292 294 280 282 292
297 298 298 298 298 298 298 298 298 298 297 293 290 295 290 281 286 289 289 285 285 283 278 284 282 282 279 276 274 275 276 278 278 280 279 279 278 280 281 279 276 292 291 284 288 291 292
298 298 298 299 298 298 298 298 299 297 298 296 286 295 296 286 285 291 292 292 291 289 285 285 282 283 283 277 277 277 276 280 279 275 284 277 281 280 283 280 290 293 291 293 293 292 292
Wind_Speed
20 20 19 17 17 16 17 15 14 12 12 11 11 10 10 9 9 9 9 8 8 7 8 10 14 18 8 5 11 6 8 8 3 5 6 7 9 7 6 7 10 7 7 10 8 9 8
20 19 18 18 17 17 17 16 15 13 12 12 11 10 10 10 10 9 9 9 8 8 9 9 10 15 3 10 8 8 2 7 7 6 8 9 6 8 7 7 6 7 16 14 9 10 8
19 19 18 17 17 17 17 15 14 13 12 12 11 10 9 10 10 9 9 9 8 8 8 8 9 7 6 22 10 21 21 9 11 10 7 12 7 6 9 10 10 12 13 14 11 10 9
11 14 19 17 17 17 15 14 13 13 12 12 12 11 10 10 9 9 8 8 8 6 7 8 7 4 11 12 14 17 17 17 13 10 9 8 8 8 5 6 9 7 6 6 10 13 17
17 17 15 17 17 17 16 14 12 12 12 11 11 11 11 10 9 8 8 8 6 6 7 6 5 4 13 12 10 16 20 16 11 12 12 11 9 8 6 6 6 7 5 11 14 18 12
19 21 20 19 19 18 16 15 14 14 13 12 11 11 9 8 6 6 4 2 2 5 7 8 6 5 8 8 7 5 11 15 13 9 6 6 2 4 4 6 11 5 7 10 12 18 7
17 20 22 22 20 19 19 18 17 15 15 14 13 10 8 7 6 11 7 1 4 5 6 12 9 8 10 6 10 5 6 6 6 7 8 7 6 10 21 14 15 16 18 21 18 12 4
9 16 20 22 22 21 21 20 18 17 16 13 12 11 8 9 13 10 3 3 2 3 10 16 22 23 21 15 14 18 8 5 11 12 6 7 16 16 16 17 18 18 20 22 13 7 11
6 11 18 20 21 22 21 20 18 16 16 15 14 12 15 14 13 4 3 9 6 4 7 11 16 22 20 17 24 22 15 13 11 14 14 19 7 20 19 19 19 18 13 11 8 7 12
14 15 8 11 17 20 21 19 19 17 15 16 19 21 21 19 5 5 3 5 3 2 6 9 11 13 16 16 17 20 24 17 10 19 12 17 15 18 19 20 19 19 13 10 8 6 6
15 17 18 20 11 17 18 20 19 18 17 19 21 22 23 15 6 5 2 8 8 2 5 7 7 1 6 19 2 3 21 22 25 16 10 9 9 8 13 15 15 18 14 10 8 8 7
15 17 18 19 22 8 13 19 21 21 21 21 21 21 19 2 2 3 2 7 4 3 11 5 5 6 4 21 10 4 4 6 3 16 21 18 14 14 14 14 10 8 4 8 5 3 15
13 16 17 16 18 21 11 11 10 19 23 24 22 21 14 6 6 6 3 4 3 7 8 7 5 7 9 7 12 12 7 6 8 9 16 16 21 18 18 20 16 5 3 3 4 6 9
9 15 16 13 14 17 16 7 10 10 11 14 18 18 4 2 7 10 5 3 7 8 10 4 6 7 10 6 11 15 11 7 9 6 3 11 7 20 13 22 8 12 10 6 6 5 5
8 8 12 10 14 13 9 16 13 7 11 12 16 1 2 4 7 3 5 4 8 6 4 5 8 2 7 13 8 12 16 12 12 15 8 4 6 8 10 4 7 22 11 15 12 6 3
13 13 16 10 12 16 15 9 8 9 6 16 4 3 1 5 8 4 4 8 8 7 6 8 11 4 5 3 3 2 6 6 10 5 13 3 4 3 2 5 5 4 3 5 4 4 5
14 13 13 13 11 13 13 11 7 9 2 15 1 4 2 7 3 3 6 8 8 13 6 4 3 8 8 9 2 9 5 4 6 7 7 4 4 3 5 2 3 2 1 3 6 4 1
13 12 11 12 11 10 10 8 8 6 5 8 2 2 3 4 4 2 4 6 7 12 6 12 6 5 6 7 9 8 9 3 4 3 3 2 3 2 6 4 5 2 4 5 3 4 4
10 10 10 11 10 10 10 9 7 5 8 3 3 0 3 2 3 3 3 5 7 4 7 8 9 9 6 6 4 6 2 4 5 3 4 1 2 1 4 5 5 7 4 3 1 1 6
9 8 8 8 8 8 8 8 8 8 9 5 3 1 3 3 1 1 3 3 5 10 9 6 10 9 10 9 10 7 5 5 6 4 9 6 5 7 6 5 4 3 4 5 7 3 1
4 6 6 5 6 6 6 5 5 6 4 0 3 1 2 0 1 1 4 3 1 1 5 9 3 9 5 5 10 13 8 8 8 10 7 7 7 7 10 8 7 7 6 13 8 8 10
3 4 3 2 2 4 4 4 4 5 3 1 4 4 3 2 1 3 1 1 2 4 5 4 3 5 8 2 5 6 9 4 3 2 6 4 5 5 9 11 10 6 14 12 15 15 14
6 6 5 5 3 3 2 1 2 4 3 2 3 3 4 1 1 2 4 6 4 2 1 5 3 1 2 1 1 4 7 12 11 6 1 4 4 4 9 10 6 8 23 18 18 14 15
7 8 9 8 6 5 3 2 1 2 2 2 3 4 2 3 8 5 8 4 8 4 3 5 7 3 3 3 8 9 8 14 14 14 10 6 8 5 5 5 14 10 11 17 19 19 13
10 10 10 12 10 8 5 4 3 2 3 2 3 1 3 3 1 4 5 8 9 9 6 8 8 3 4 4 3 5 3 2 8 17 16 14 8 5 5 9 4 4 14 12 11 18 18
14 14 13 14 10 9 7 7 7 3 2 1 3 2 3 3 4 6 6 5 2 6 7 4 5 5 3 2 2 2 4 2 4 6 17 16 13 10 4 6 12 15 20 12 7 10 19
16 17 17 15 13 12 11 10 8 6 4 1 3 4 2 3 4 1 2 4 5 3 2 1 3 2 4 2 1 3 5 5 3 3 2 4 12 16 11 10 5 14 3 2 9 13 9
15 18 18 17 16 15 14 12 11 9 8 2 4 1 3 0 5 5 6 5 5 2 1 4 4 3 3 3 3 4 4 5 6 10 6 6 3 5 11 13 22 5 2 12 9 4 2
17 18 20 20 19 17 15 14 13 14 11 6 2 2 1 2 5 3 6 6 6 3 2 4 4 3 4 2 2 2 2 4 4 9 9 9 6 8 9 4 6 4 4 6 5 11 11
Wind_Direction
214 213 209 211 213 211 212 208 210 210 216 221 225 229 235 246 259 267 272 277 288 302 316 327 338 335 352 319 256 275 195 231 267 260 256 284 300 297 268 309 333 292 286 306 313 312 297
211 212 213 204 210 210 214 215 207 204 209 220 223 225 230 245 249 255 265 274 279 284 297 320 339 325 290 268 276 311 302 323 247 278 299 301 272 295 289 282 274 281 300 296 297 294 292
219 210 209 210 208 213 211 210 208 204 204 209 218 226 228 237 249 255 263 271 272 282 300 315 334 314 240 246 298 302 299 277 273 277 273 285 318 4 324 322 285 319 307 300 290 279 261
254 230 215 212 209 212 210 209 207 206 207 208 212 211 220 226 238 247 254 264 270 271 285 297 305 291 259 258 258 257 266 284 276 274 243 264 292 291 260 287 310 308 296 280 270 254 255
228 238 221 219 212 213 206 204 204 207 210 210 210 216 213 220 227 232 238 256 255 264 260 280 289 196 274 286 237 242 235 243 263 263 246 238 242 231 294 260 311 242 247 270 280 256 243
229 224 226 223 214 214 212 208 206 206 205 207 212 217 210 214 212 237 216 156 279 294 246 240 244 320 255 247 247 230 219 216 237 251 228 200 220 203 230 189 228 223 242 252 247 281 314
234 222 218 220 218 204 207 211 205 206 206 204 200 200 211 207 219 144 126 258 282 266 231 197 196 233 293 232 309 306 232 223 196 231 197 194 178 208 229 228 235 248 264 273 270 278 297
242 234 221 218 211 209 205 202 201 203 199 197 202 187 199 154 146 149 128 214 288 326 291 226 250 251 256 273 277 287 284 214 207 226 240 237 225 221 241 245 248 242 249 262 276 316 323
26 261 227 218 211 204 206 200 195 196 191 178 169 153 140 132 122 117 219 209 23 36 272 245 242 250 234 219 245 242 255 229 221 219 220 234 219 219 231 248 253 258 261 267 259 287 293
58 41 26 255 212 206 197 195 198 192 185 167 149 143 137 127 139 146 220 218 302 29 259 266 217 253 217 210 261 232 232 240 230 230 238 248 235 242 255 243 247 253 260 286 301 305 262
75 63 43 37 222 196 192 188 185 180 169 159 148 150 151 142 138 170 57 162 133 74 261 229 187 310 170 183 277 238 205 219 238 234 197 232 303 291 271 269 267 273 283 281 283 293 314
89 73 55 38 37 20 190 189 175 166 161 159 154 154 158 34 80 107 84 94 95 193 239 252 127 171 158 197 217 114 117 212 239 244 257 263 272 247 259 278 308 336 338 317 285 263 262
101 89 74 51 44 37 51 80 150 168 163 159 156 157 163 153 173 157 118 113 151 221 272 169 177 170 192 193 215 228 191 204 193 206 228 251 257 264 258 271 274 248 1 306 302 213 252
117 103 96 85 66 50 26 84 109 121 125 139 144 148 200 180 142 146 132 77 216 233 258 350 13 198 190 183 211 209 234 184 213 224 198 216 263 230 233 225 234 234 194 186 214 223 284
101 122 115 128 108 95 47 53 42 149 153 176 131 173 155 167 162 175 112 195 209 222 73 202 311 272 219 209 208 184 208 216 190 194 211 217 229 350 55 170 237 226 213 224 254 299 304
87 83 82 92 145 134 120 84 50 18 216 156 128 145 126 306 170 170 169 222 227 237 77 327 214 312 246 223 227 203 207 207 222 184 218 192 302 336 60 21 357 116 96 48 70 207 211
81 75 82 87 84 79 110 108 82 49 112 151 61 140 357 318 96 204 213 213 234 265 126 226 259 247 290 313 321 280 244 57 30 28 11 88 135 278 22 189 213 84 244 224 138 154 241
86 92 87 84 81 90 84 110 110 89 71 65 84 129 344 302 163 253 211 204 237 274 152 207 200 213 259 312 309 278 269 66 62 64 43 56 107 208 247 325 8 60 38 27 132 195 219
87 84 82 84 83 85 83 81 105 138 55 92 74 311 312 341 191 216 258 236 251 284 231 235 218 212 223 264 288 248 268 144 140 114 156 2 17 34 318 316 62 81 46 58 33 295 237
85 89 84 84 90 82 76 82 85 80 110 105 115 244 39 54 308 345 208 223 238 238 266 294 281 307 281 249 248 262 261 181 171 159 137 112 183 198 217 192 148 141 212 139 130 150 321
101 89 95 97 89 83 82 67 62 84 121 41 124 20 51 330 229 295 338 331 169 299 16 28 279 36 357 265 257 250 257 281 192 171 156 146 219 220 240 228 174 182 178 196 192 212 196
172 156 152 117 103 90 82 65 39 43 18 58 130 154 131 203 195 181 54 334 2 77 7 37 35 10 32 90 36 359 349 4 304 124 155 181 246 204 251 249 232 191 220 223 217 221 230
220 203 192 183 183 184 157 87 28 25 16 88 306 55 79 327 65 196 198 207 221 102 210 304 149 334 6 119 352 248 255 277 278 296 112 311 193 190 238 231 258 258 230 220 226 229 209
250 225 220 215 207 212 207 194 280 336 33 143 222 103 159 216 189 203 237 228 266 261 234 251 266 280 84 225 247 240 237 252 245 256 232 199 223 236 230 151 227 235 232 238 226 240 233
254 250 236 228 217 221 212 237 254 277 353 3 330 127 161 248 316 297 247 195 200 250 230 225 239 175 167 251 358 320 311 276 250 233 235 211 200 252 213 194 295 291 235 216 203 234 235
248 246 244 240 231 224 217 230 232 252 302 358 290 283 92 104 264 332 298 295 188 193 224 231 238 180 124 126 147 222 236 224 285 293 204 222 233 220 204 209 224 227 249 261 269 273 244
241 242 243 242 235 223 214 218 228 230 246 226 274 6 77 145 273 299 304 7 332 343 173 101 125 107 108 110 250 220 237 285 257 230 304 246 230 230 238 239 257 253 215 202 217 248 224
265 249 236 235 233 229 222 220 219 224 225 193 274 253 102 101 299 322 317 324 328 327 114 281 40 309 75 142 175 233 242 236 228 232 256 247 240 249 234 236 244 242 244 216 241 281 141
265 249 245 235 225 224 222 217 214 214 215 188 297 309 175 144 249 337 271 270 272 273 40 304 221 311 162 117 261 299 324 332 331 264 267 258 225 248 230 227 271 309 303 332 294 238 225